Tracking 19176 objects as of 27-May-2018
HD Live streaming from Space Station
objects crossing your sky now

FENGYUN 1C DEB

Track FENGYUN 1C DEB now!
10-day predictions


NORAD ID: 30334
Int'l Code: 1999-025AAV
Perigee: 843.5 km
Apogee: 1,079.3 km
Inclination: 98.9 °
Period: 104.1 minutes
Semi major axis: 7332 km
RCS: 0.0454 m2 (small)
Launch date: May 10, 1999
Source: People's Republic of China (PRC)
Launch site: Taiyaun Space Center, China (TSC)

Note: This is SATELLITE DEBRIS
aabbcc
Your satellite tracking list
Your tracking list is empty




NASA's NSSDC Master Catalog

Two Line Element Set (TLE):
1 30334U 99025AAV 18146.78172479 +.00000612 +00000-0 +54485-3 0  9991
2 30334 098.8879 326.7322 0160756 226.3560 253.1453 13.82723481570439
Source of the keplerian elements: AFSPC